This is the latest recevied weather packets stored in our database for station/object AA4XD. If no packets are shown the sender has not sent any weather packets the latest 10 day(s).
| Time | Temp. | Humidity | Pressure | Rain* | Wind** | Luminosity | Snow |
|---|---|---|---|---|---|---|---|
| 1777766259 | 17.78° C | 89% | 1011.7 hPa | 0 mm | - | 3 W/m² | - |
| 1777765957 | 17.78° C | 89% | 1011.5 hPa | 0 mm | - | 5 W/m² | - |
| 1777765653 | 17.78° C | 88% | 1011.7 hPa | 0 mm | - | 5 W/m² | - |
| 1777765350 | 17.78° C | 88% | 1011.6 hPa | 0 mm | - | 6 W/m² | - |
| 1777765046 | 17.78° C | 89% | 1011.3 hPa | 0 mm | - | 12 W/m² | - |
| 1777764743 | 18.33° C | 89% | 1011.4 hPa | 0 mm | - | 12 W/m² | - |
| 1777764439 | 18.33° C | 88% | 1011 hPa | 0 mm | - | 9 W/m² | - |
| 1777764136 | 18.33° C | 89% | 1010.8 hPa | 0 mm | - | 13 W/m² | - |
| 1777763833 | 18.33° C | 88% | 1010.6 hPa | 0 mm | - | 17 W/m² | - |
| 1777763531 | 18.33° C | 89% | 1010.7 hPa | 0 mm | - | 25 W/m² | - |
| 1777763229 | 18.89° C | 88% | 1010.5 hPa | 0 mm | - | 31 W/m² | - |
| 1777762927 | 18.89° C | 88% | 1010.4 hPa | 0 mm | - | 36 W/m² | - |
| 1777762622 | 18.89° C | 87% | 1010.2 hPa | 0 mm | - | 42 W/m² | - |
| 1777762320 | 19.44° C | 87% | 1010 hPa | 0 mm | - | 75 W/m² | - |
| 1777762016 | 20° C | 86% | 1009.8 hPa | 0 mm | - | 69 W/m² | - |
| 1777761713 | 20° C | 86% | 1009.9 hPa | 0 mm | - | 75 W/m² | - |
| 1777761411 | 20° C | 86% | 1009.6 hPa | 0 mm | - | 75 W/m² | - |
| 1777761109 | 20.56° C | 84% | 1009.6 hPa | 0 mm | - | 106 W/m² | - |
| 1777760806 | 21.11° C | 83% | 1009.8 hPa | 0 mm | - | 52 W/m² | - |
| 1777760502 | 21.67° C | 81% | 1009.6 hPa | 0 mm | - | 43 W/m² | - |
| 1777760198 | 22.22° C | 80% | 1009.5 hPa | 0 mm | - | 79 W/m² | - |
| 1777759895 | 22.22° C | 80% | 1009.5 hPa | 0 mm | - | 123 W/m² | - |
| 1777759592 | 22.78° C | 77% | 1009.3 hPa | 0 mm | - | 102 W/m² | - |
| 1777759288 | 22.78° C | 79% | 1009.4 hPa | 0 mm | - | 201 W/m² | - |
| 1777758985 | 22.78° C | 79% | 1009 hPa | 0 mm | - | 107 W/m² | - |
* Rain latest hour (hover to see other rain measurements)
** Current wind speed in m/s (hover to see current wind gust speed)